Weather WX

World > North America > United States > Ohio

Seven Mile, Ohio Regional Weather

Lat: 39.48N, Lon: 84.55W
Wx Zone: OHZ070
Feedback

Seven Mile, OH Regional Weather

Expires:201906252200;;071725
ASUS41 KCLE 252112
RWRCLE
OHIO REGIONAL WEATHER ROUNDUP
NATIONAL WEATHER SERVICE WILMINGTON, OH
500 PM EDT TUE JUN 25 2019

NOTE: "FAIR" INDICATES FEW OR NO CLOUDS BELOW 12,000 FEET WITH NO
SIGNIFICANT WEATHER AND/OR OBSTRUCTIONS TO VISIBILITY.


OHZ042-051>053-060>062-070>072-077>081-252200-
  SOUTHWEST OHIO
  
CITY           SKY/WX    TMP DP  RH WIND       PRES   REMARKS
CINC-COVINGTON FAIR      82  59  45 SW7       30.02F                  
CINC-LUNKEN    FAIR      83  61  47 W14G21    30.01S                  
HAMILTON       FAIR      83  62  49 W8        30.01F                  
DAYTON         FAIR      84  59  42 SW13G22   30.00F                  
WRIGHT-PAT AFB FAIR      83  60  44 SW14      29.99S                  
DAYTON GENERAL FAIR      85  57  38 W10       30.00F                  
WILMINGTON     FAIR      82  59  45 W14       30.01F                  
$$


SKY/WX - Weather  TMP - Temperature  DP - Dew Point  RH - Relative Humidity
WIND - Wind Direction/Speed PRES - Barometric Pressure VSB - Visibility
WCI - Wind Chill Index E13G22 Wind - East Wind 13 mph/Gusts of 22 mph